Meteo pe oră la Bolshoe Kashino

Astăzi, 9 Mai, Duminică

Timp Temperatura Precipitaţii Vânt Presiune Umiditate
00:00 +1°C° 0 mm 3 m/s 734 mmHg 84%
01:00 0°C° 0 mm 4 m/s 734 mmHg 87%
02:00 -1°C° 0 mm 4 m/s 735 mmHg 91%
03:00 0°C° 0 mm 4 m/s 735 mmHg 89%
04:00 0°C° 0 mm 4 m/s 736 mmHg 87%
05:00 0°C° 0 mm 4 m/s 736 mmHg 85%
06:00 +1°C° 0 mm 4 m/s 737 mmHg 79%
07:00 +3°C° 0 mm 4 m/s 737 mmHg 72%
08:00 +3°C° 0 mm 5 m/s 738 mmHg 63%
09:00 +6°C° 0 mm 5 m/s 738 mmHg 56%
10:00 +7°C° 0 mm 5 m/s 739 mmHg 48%
11:00 +9°C° 0 mm 5 m/s 739 mmHg 41%
12:00 +9°C° 0 mm 5 m/s 739 mmHg 39%
13:00 +10°C° 0 mm 5 m/s 740 mmHg 36%
14:00 +10°C° 0 mm 5 m/s 740 mmHg 34%
15:00 +10°C° 0 mm 5 m/s 741 mmHg 36%
16:00 +11°C° 0 mm 4 m/s 741 mmHg 38%
17:00 +10°C° 0 mm 4 m/s 741 mmHg 40%
18:00 +8°C° 0 mm 3 m/s 742 mmHg 48%
19:00 +6°C° 0 mm 2 m/s 743 mmHg 55%
20:00 +5°C° 0 mm 1 m/s 743 mmHg 63%
21:00 +5°C° 0 mm 1 m/s 744 mmHg 64%
22:00 +4°C° 0 mm 1 m/s 744 mmHg 65%
23:00 +4°C° 0 mm 1 m/s 745 mmHg 66%

Mâine, 10 Mai, Luni

Timp Temperatura Precipitaţii Vânt Presiune Umiditate
00:00 +3°C° 0 mm 1 m/s 745 mmHg 66%
01:00 +3°C° 0 mm 1 m/s 745 mmHg 67%
02:00 +3°C° 0 mm 1 m/s 746 mmHg 67%
03:00 +3°C° 0 mm 1 m/s 746 mmHg 67%
04:00 +3°C° 0 mm 1 m/s 746 mmHg 68%
05:00 +4°C° 0 mm 1 m/s 747 mmHg 68%
06:00 +6°C° 0 mm 1 m/s 747 mmHg 62%
07:00 +7°C° 0 mm 2 m/s 747 mmHg 55%
08:00 +10°C° 0 mm 2 m/s 748 mmHg 49%
09:00 +12°C° 0 mm 2 m/s 748 mmHg 45%
10:00 +13°C° 0 mm 2 m/s 747 mmHg 41%
11:00 +13°C° 0 mm 3 m/s 747 mmHg 37%
12:00 +15°C° 0 mm 2 m/s 747 mmHg 37%
13:00 +16°C° 0 mm 2 m/s 747 mmHg 36%
14:00 +16°C° 0 mm 2 m/s 747 mmHg 36%
15:00 +16°C° 0 mm 2 m/s 747 mmHg 38%
16:00 +16°C° 0 mm 2 m/s 747 mmHg 41%
17:00 +16°C° 0 mm 1 m/s 747 mmHg 43%
18:00 +14°C° 0 mm 2 m/s 747 mmHg 51%
19:00 +12°C° 0 mm 2 m/s 747 mmHg 60%
20:00 +9°C° 0 mm 2 m/s 748 mmHg 68%
21:00 +8°C° 0 mm 2 m/s 748 mmHg 70%
22:00 +7°C° 0 mm 2 m/s 748 mmHg 72%
23:00 +6°C° 0 mm 2 m/s 748 mmHg 74%

Poimâine, 11 Mai, Marţi

Timp Temperatura Precipitaţii Vânt Presiune Umiditate
00:00 +7°C° 0 mm 1 m/s 748 mmHg 74%
01:00 +7°C° 0 mm 1 m/s 748 mmHg 74%
02:00 +6°C° 0 mm 1 m/s 749 mmHg 74%
03:00 +7°C° 0 mm 1 m/s 749 mmHg 73%
04:00 +7°C° 0 mm 1 m/s 749 mmHg 72%
05:00 +7°C° 0 mm 1 m/s 749 mmHg 71%
06:00 +9°C° 0 mm 1 m/s 749 mmHg 63%
07:00 +10°C° 0 mm 2 m/s 749 mmHg 56%
08:00 +13°C° 0 mm 2 m/s 749 mmHg 48%
09:00 +15°C° 0 mm 2 m/s 749 mmHg 45%
10:00 +16°C° 0 mm 3 m/s 748 mmHg 41%
11:00 +17°C° 0 mm 3 m/s 748 mmHg 37%
12:00 +18°C° 0 mm 3 m/s 748 mmHg 37%
13:00 +19°C° 0 mm 3 m/s 748 mmHg 36%
14:00 +19°C° 0 mm 3 m/s 748 mmHg 35%
15:00 +19°C° 0 mm 3 m/s 748 mmHg 38%
16:00 +18°C° 0 mm 3 m/s 747 mmHg 42%
17:00 +18°C° 0 mm 3 m/s 747 mmHg 45%
18:00 +16°C° 0 mm 2 m/s 747 mmHg 54%
19:00 +14°C° 0 mm 2 m/s 747 mmHg 63%
20:00 +10°C° 0 mm 2 m/s 747 mmHg 72%
21:00 +10°C° 0 mm 2 m/s 747 mmHg 75%
22:00 +9°C° 0 mm 2 m/s 747 mmHg 77%
23:00 +9°C° 0 mm 2 m/s 747 mmHg 80%

12 Mai, Miercuri

Timp Temperatura Precipitaţii Vânt Presiune Umiditate
00:00 +8°C° 0 mm 2 m/s 747 mmHg 84%
01:00 +8°C° 0 mm 2 m/s 747 mmHg 88%
02:00 +8°C° 0 mm 2 m/s 746 mmHg 91%
03:00 +8°C° 0 mm 2 m/s 746 mmHg 92%
04:00 +9°C° 0 mm 2 m/s 746 mmHg 92%
05:00 +9°C° 0 mm 2 m/s 746 mmHg 92%
06:00 +12°C° 0 mm 2 m/s 746 mmHg 85%
07:00 +13°C° 0 mm 3 m/s 746 mmHg 77%
08:00 +17°C° 0 mm 4 m/s 745 mmHg 70%
09:00 +18°C° 0 mm 4 m/s 745 mmHg 65%
10:00 +19°C° 0 mm 5 m/s 744 mmHg 61%
11:00 +21°C° 0 mm 6 m/s 744 mmHg 56%
12:00 +19°C° 0.3 mm 5 m/s 744 mmHg 64%
13:00 +17°C° 0.3 mm 5 m/s 744 mmHg 73%
14:00 +15°C° 0.3 mm 4 m/s 743 mmHg 81%
15:00 +15°C° 0.1 mm 4 m/s 743 mmHg 80%
16:00 +15°C° 0.1 mm 4 m/s 743 mmHg 78%
17:00 +14°C° 0.1 mm 4 m/s 743 mmHg 76%
18:00 +13°C° 0 mm 3 m/s 743 mmHg 81%
19:00 +13°C° 0 mm 2 m/s 743 mmHg 85%
20:00 +12°C° 0 mm 1 m/s 742 mmHg 89%
21:00 +12°C° 0.1 mm 2 m/s 742 mmHg 91%
22:00 +12°C° 0.1 mm 2 m/s 742 mmHg 93%
23:00 +11°C° 0.1 mm 3 m/s 742 mmHg 95%

13 Mai, Joi

Timp Temperatura Precipitaţii Vânt Presiune Umiditate
00:00 +11°C° 0.1 mm 3 m/s 741 mmHg 95%
01:00 +11°C° 0.1 mm 3 m/s 741 mmHg 95%
02:00 +12°C° 0.1 mm 2 m/s 741 mmHg 95%
03:00 +11°C° 0 mm 3 m/s 741 mmHg 93%
04:00 +11°C° 0 mm 3 m/s 741 mmHg 91%
05:00 +11°C° 0 mm 4 m/s 740 mmHg 88%
06:00 +11°C° 0.1 mm 4 m/s 740 mmHg 87%
07:00 +10°C° 0.1 mm 5 m/s 740 mmHg 87%
08:00 +10°C° 0.1 mm 5 m/s 740 mmHg 86%
09:00 +13°C° 0.2 mm 5 m/s 740 mmHg 78%
10:00 +14°C° 0.2 mm 5 m/s 740 mmHg 71%
11:00 +15°C° 0.2 mm 6 m/s 740 mmHg 64%
12:00 +15°C° 0.1 mm 6 m/s 740 mmHg 62%
13:00 +16°C° 0.1 mm 5 m/s 740 mmHg 60%
14:00 +16°C° 0.1 mm 5 m/s 740 mmHg 58%
15:00 +16°C° 0.1 mm 5 m/s 740 mmHg 62%
16:00 +17°C° 0.1 mm 4 m/s 740 mmHg 66%
17:00 +15°C° 0.1 mm 4 m/s 740 mmHg 70%
18:00 +14°C° 0 mm 3 m/s 740 mmHg 77%
19:00 +14°C° 0 mm 2 m/s 740 mmHg 84%
20:00 +12°C° 0 mm 2 m/s 740 mmHg 91%
21:00 +12°C° 0 mm 2 m/s 739 mmHg 92%
22:00 +12°C° 0 mm 2 m/s 739 mmHg 93%
23:00 +12°C° 0 mm 2 m/s 739 mmHg 95%

14 Mai, Vineri

Timp Temperatura Precipitaţii Vânt Presiune Umiditate
00:00 +12°C° 0 mm 2 m/s 739 mmHg 95%
01:00 +12°C° 0 mm 2 m/s 739 mmHg 95%
02:00 +11°C° 0 mm 3 m/s 738 mmHg 95%
03:00 +11°C° 0 mm 3 m/s 738 mmHg 93%
04:00 +12°C° 0 mm 3 m/s 738 mmHg 91%
05:00 +12°C° 0 mm 3 m/s 737 mmHg 89%
06:00 +13°C° 0 mm 4 m/s 737 mmHg 83%
07:00 +15°C° 0 mm 4 m/s 737 mmHg 77%
08:00 +16°C° 0 mm 5 m/s 737 mmHg 72%
09:00 +17°C° 0 mm 5 m/s 736 mmHg 67%
10:00 +20°C° 0 mm 5 m/s 736 mmHg 63%
11:00 +21°C° 0 mm 6 m/s 736 mmHg 59%
12:00 +20°C° 0.6 mm 5 m/s 736 mmHg 66%
13:00 +20°C° 0.6 mm 5 m/s 736 mmHg 72%
14:00 +19°C° 0.6 mm 4 m/s 736 mmHg 78%
15:00 +19°C° 1 mm 4 m/s 735 mmHg 81%
16:00 +18°C° 1 mm 4 m/s 735 mmHg 84%
17:00 +18°C° 1 mm 3 m/s 735 mmHg 86%
18:00 +17°C° 0.2 mm 3 m/s 735 mmHg 89%
19:00 +15°C° 0.2 mm 2 m/s 735 mmHg 92%
20:00 +14°C° 0.2 mm 1 m/s 735 mmHg 95%
21:00 +13°C° 0 mm 1 m/s 735 mmHg 96%
22:00 +13°C° 0 mm 1 m/s 735 mmHg 96%
23:00 +12°C° 0 mm 1 m/s 735 mmHg 96%
Arată mai mult

Formular de consimțământ

Meteoprog și furnizorii noștri de servicii pot stoca și accesa date personale, precum cookies, identificatori de dispozitiv sau alte tehnologii similare pe dispozitivul dumneavoastră și procesa astfel de date pentru a personaliza conținutul și reclamele, dar și pentru a oferi caracteristici de social media și pentru a analiza traficul.

  • Stocarea și/sau accesarea informațiilor pe dispozitivul dumneavoastră

    Cookies, identificatori de dispozitiv sau alte informații pot fi stocate sau accesate pe dispozitiv în scopurile indicate mai sus.

  • Reclame și conținut personalizat, evaluarea reclamelor și a conținutului, informații despre audiențe și dezvoltarea produselor

    Reclamele și conținutul pot fi personalizate pe baza unui profil. Pot fi adăugate date suplimentare pentru a personaliza mai bine reclamele și conținutul. Performanța reclamelor și conținutului poate fi măsurată. Pot fi obținute informații despre utilizatorii care au văzut reclamele și conținutul. Aceste date pot fi utilizate pentru a dezvolta sau îmbunătăți experiența utilizatorilor, sistemele și software-ul.

Dând clic pe ‘Sunt de acord’, permiteți utilizarea cookie-urilor menționate, a identificatorilor de dispozitiv, balizelor web sau altor tehnologii similare. Setările pot fi modificate din browser-ul dispozitivului dumneavoastră.

În anumite scopuri, interesele legitime pot prima asupra consimțământului. Puteți citi mai multe informații în acest sens în Politica privind Confidențialitatea Datelor și Cookie.